This is the latest recevied weather packets stored in our database for station/object KI2K. If no packets are shown the sender has not sent any weather packets the latest 10 day(s).
| Time | Temp. | Humidity | Pressure | Rain* | Wind** | Luminosity | Snow |
|---|---|---|---|---|---|---|---|
| 1777577331 | 16.11° C | 50% | 1015.8 hPa | 0 mm | - | 262 W/m² | - |
| 1777577026 | 16.11° C | 55% | 1015.9 hPa | 0 mm | - | 834 W/m² | - |
| 1777576724 | 15° C | 55% | 1015.8 hPa | 0 mm | - | 793 W/m² | - |
| 1777576423 | 15° C | 53% | 1015.7 hPa | 0 mm | - | 742 W/m² | - |
| 1777576120 | 15° C | 52% | 1016.1 hPa | 0 mm | - | 331 W/m² | - |
| 1777575815 | 15° C | 53% | 1016 hPa | 0 mm | - | 273 W/m² | - |
| 1777575511 | 15° C | 52% | 1016 hPa | 0 mm | - | 215 W/m² | - |
| 1777575207 | 15° C | 54% | 1016 hPa | 0 mm | - | 810 W/m² | - |
| 1777574903 | 15° C | 54% | 1015.8 hPa | 0 mm | - | 734 W/m² | - |
| 1777574594 | 15° C | 52% | 1016.1 hPa | 0 mm | - | 754 W/m² | - |
| 1777574290 | 15° C | 56% | 1015.9 hPa | 0 mm | - | 226 W/m² | - |
| 1777573986 | 15° C | 56% | 1016.1 hPa | 0 mm | - | 172 W/m² | - |
| 1777573680 | 15.56° C | 57% | 1016 hPa | 0 mm | - | 398 W/m² | - |
| 1777573378 | 15.56° C | 54% | 1016 hPa | 0 mm | - | 844 W/m² | - |
| 1777573073 | 15° C | 53% | 1016.2 hPa | 0 mm | - | 700 W/m² | - |
| 1777572771 | 15.56° C | 52% | 1015.9 hPa | 0 mm | - | 152 W/m² | - |
| 1777572465 | 15° C | 54% | 1016.2 hPa | 0 mm | - | 707 W/m² | - |
| 1777572162 | 15° C | 53% | 1016.3 hPa | 0 mm | - | 647 W/m² | - |
| 1777571857 | 15.56° C | 57% | 1016.2 hPa | 0 mm | - | 228 W/m² | - |
| 1777571553 | 15° C | 53% | 1016.3 hPa | 0 mm | - | 719 W/m² | - |
| 1777571250 | 14.44° C | 53% | 1016.3 hPa | 0 mm | - | 755 W/m² | - |
| 1777570946 | 14.44° C | 54% | 1016.5 hPa | 0 mm | - | 775 W/m² | - |
| 1777570642 | 15° C | 52% | 1016.7 hPa | 0 mm | - | 779 W/m² | - |
| 1777570339 | 15° C | 51% | 1016.8 hPa | 0 mm | - | 743 W/m² | - |
| 1777570035 | 14.44° C | 56% | 1016.8 hPa | 0 mm | - | 727 W/m² | - |
* Rain latest hour (hover to see other rain measurements)
** Current wind speed in m/s (hover to see current wind gust speed)